Weather History for KCTY - November, 2012

Change the Weather History Date:

Monday, November 26, 2012

  Actual Average Record
Temperature  
Mean Temperature 52 °F 60 °F  
Max Temperature 74 °F 72 °F - ()
Min Temperature 29 °F 47 °F - ()
Degree Days  
Heating Degree Days 13 7  
Month to date heating degree days 153 110  
Since 1 July heating degree days 191 142  
Cooling Degree Days 0 1  
Month to date cooling degree days 17 54  
Year to date cooling degree days 2797 2597  
Moisture  
Dew Point 33 °F    
Average Humidity 62    
Maximum Humidity 92    
Minimum Humidity 20    
Precipitation  
Precipitation 0.00 in 0.10 in - ()
Month to date precipitation 0.50 2.22  
Year to date precipitation 57.65 45.45  
Sea Level Pressure  
Sea Level Pressure 30.20 in    
Wind  
Wind Speed 1 mph (ENE)    
Max Wind Speed 7 mph    
Max Gust Speed 10 mph    
T = Trace of Precipitation, MM = Missing Value Source: NWS Daily Summary

Daily Weather History Graph

Daily Weather History Graph

Search for Another Location

Airport or City:

Trip Planner

Search our weather history database for the weather conditions in past years. The results will help you decide how hot, cold, wet, or windy it might be!

Date:

Astronomy

Nov. 26, 2012 Rise Set
Actual Time 7:06 AM EST 5:33 PM EST
Civil Twilight 6:40 AM EST 5:59 PM EST
Nautical Twilight 6:11 AM EST 6:28 PM EST
Astronomical Twilight 5:42 AM EST 6:57 PM EST
Moon 4:21 PM EST (11/26) 5:20 AM EST (11/26)
Length of Visible Light 11h 18m
Length of Day
10h 27m
Waxing Gibbous, 97% of the Moon is Illuminated
Nov 26
Waxing Gibbous
Nov 28
Full
Dec 6
Last Quarter
Dec 13
New
Dec 20
First Quarter

Hourly Weather History & Observations

Time (EST) Temp. Windchill Dew Point Humidity Pressure Visibility Wind Dir Wind Speed Gust Speed Precip Events Conditions
12:53 AM 33.1 °F - 30.0 °F 89% 30.17 in - Calm Calm - N/A   Unknown
1:53 AM 32.0 °F - 28.9 °F 88% 30.17 in - Calm Calm - N/A   Unknown
2:53 AM 30.9 °F - 28.0 °F 89% 30.17 in - Calm Calm - N/A   Unknown
3:53 AM 30.0 °F - 28.0 °F 92% 30.17 in - Calm Calm - N/A   Unknown
4:53 AM 30.0 °F - 27.0 °F 88% 30.17 in - Calm Calm - N/A   Unknown
5:53 AM 30.0 °F - 26.1 °F 85% 30.19 in - Calm Calm - N/A   Unknown
6:53 AM 28.9 °F - 26.1 °F 89% 30.21 in - Calm Calm - N/A   Unknown
7:53 AM 34.0 °F 31.0 °F 30.0 °F 85% 30.23 in - NE 3.5 mph - N/A   Unknown
8:53 AM 48.0 °F - 37.9 °F 68% 30.24 in - NE 3.5 mph - N/A   Unknown
9:53 AM 57.9 °F - 34.0 °F 41% 30.26 in - Calm Calm - N/A   Unknown
10:53 AM 64.9 °F - 32.0 °F 29% 30.25 in - Variable 3.5 mph - N/A   Unknown
11:53 AM 69.1 °F - 32.0 °F 25% 30.23 in - Calm Calm - N/A   Unknown
12:53 PM 70.0 °F - 30.9 °F 24% 30.21 in - East 5.8 mph - N/A   Unknown
1:53 PM 72.0 °F - 32.0 °F 23% 30.18 in - ESE 4.6 mph - N/A   Unknown
2:53 PM 72.0 °F - 30.0 °F 21% 30.17 in - Calm Calm - N/A   Unknown
3:53 PM 73.0 °F - 30.9 °F 21% 30.16 in - Calm Calm - N/A   Unknown
4:53 PM 71.1 °F - 35.1 °F 27% 30.16 in - NE 3.5 mph - N/A   Unknown
5:53 PM 59.0 °F - 39.9 °F 49% 30.18 in - Calm Calm - N/A   Unknown
6:53 PM 51.1 °F - 41.0 °F 68% 30.19 in - Calm Calm - N/A   Unknown
7:53 PM 46.9 °F - 39.9 °F 77% 30.19 in - Calm Calm - N/A   Unknown
8:53 PM 45.0 °F - 39.0 °F 80% 30.20 in - Calm Calm - N/A   Unknown
9:53 PM 45.0 °F - 39.9 °F 82% 30.20 in - Calm Calm - N/A   Unknown
10:53 PM 44.1 °F - 39.0 °F 82% 30.20 in - Calm Calm - N/A   Unknown
11:53 PM 44.1 °F - 39.0 °F 82% 30.20 in - Calm Calm - N/A   Unknown